W5DNT Weather Reports


Display with metric or nautical units.
time (UTC)temp
F
wind
direction
speed
MPH
gust
MPH
rain 1hr
in
rain 24hr
in
rain mn
in
humidity
%
barometer
mb
20260506061558 67 304 0.0 0.0 0.00 0.00 0.00 73 1007.8
20260506044546 70 346 0.0 1.0 0.00 0.00 0.00 71 1007.6
20260506043040 71 344 0.0 5.0 0.00 0.00 0.00 71 1007.5
20260506041536 73 340 1.0 8.0 0.00 0.00 0.00 71 1007.4
20260506040052 75 348 0.0 10.0 0.00 0.00 0.00 71 1007.1
20260506034535 77 321 0.0 0.0 0.00 0.00 0.00 72 1006.7
20260506033033 78 355 0.0 1.0 0.00 0.00 0.00 72 1006.5
20260506031547 78 176 0.0 1.0 0.00 0.00 0.00 76 1005.7
20260506030032 78 360 0.0 2.0 0.00 0.00 0.00 72 1005.6
20260506024532 78 144 0.0 1.0 0.00 0.00 0.00 74 1004.7
20260506023032 78 141 0.0 0.0 0.00 0.00 0.00 74 1004.6
20260506021533 79 141 0.0 0.0 0.00 0.00 0.00 73 1004.3
20260506020030 79 141 0.0 0.0 0.00 0.00 0.00 71 1004.2
20260506014630 80 136 0.0 0.0 0.00 0.00 0.00 70 1003.9
20260506013029 81 152 0.0 0.0 0.00 0.00 0.00 69 1003.6
20260506011529 82 152 0.0 0.0 0.00 0.00 0.00 67 1003.5
20260506010029 83 155 0.0 0.0 0.00 0.00 0.00 67 1003.4
20260506004528 84 155 0.0 0.0 0.00 0.00 0.00 66 1003.2
20260506003027 84 156 0.0 1.0 0.00 0.00 0.00 65 1003.4
20260506001527 85 138 0.0 1.0 0.00 0.00 0.00 65 1003.4
20260506000027 86 139 0.0 1.0 0.00 0.00 0.00 65 1003.5
20260505234527 86 152 0.0 5.0 0.00 0.00 0.00 64 1003.4
20260505233025 87 200 0.0 5.0 0.00 0.00 0.00 63 1003.3
20260505231530 89 148 0.0 6.0 0.00 0.00 0.00 60 1003.2
20260505230030 90 186 0.0 3.0 0.00 0.00 0.00 58 1003.2
20260505224524 91 164 0.0 0.0 0.00 0.00 0.00 51 1003.2
20260505223023 91 306 0.0 5.0 0.00 0.00 0.00 53 1003.2
20260505221522 91 172 0.0 1.0 0.00 0.00 0.00 50 1003.1
20260505220020 91 159 0.0 5.0 0.00 0.00 0.00 51 1003.2
20260505214522 90 175 0.0 3.0 0.00 0.00 0.00 52 1003.4
20260505213019 90 170 0.0 1.0 0.00 0.00 0.00 52 1003.3
20260505211517 91 169 0.0 5.0 0.00 0.00 0.00 53 1003.4
20260505210020 90 156 0.0 0.0 0.00 0.00 0.00 56 1003.6
20260505204511 89 163 0.0 1.0 0.00 0.00 0.00 56 1004.0
20260505203009 89 136 0.0 1.0 0.00 0.00 0.00 59 1003.9
20260505201507 89 177 0.0 2.0 0.00 0.00 0.00 57 1004.1
20260505200004 89 312 0.0 1.0 0.00 0.00 0.00 66 1004.5
20260505194504 88 273 0.0 5.0 0.00 0.00 0.00 64 1004.6
20260505193101 87 327 0.0 5.0 0.00 0.00 0.00 64 1004.5
20260505191557 87 280 0.0 3.0 0.00 0.00 0.00 66 1004.7
20260505190055 86 155 0.0 7.0 0.00 0.00 0.00 66 1004.9
20260505184552 85 151 0.0 5.0 0.00 0.00 0.00 67 1005.3
20260505183048 84 154 0.0 8.0 0.00 0.00 0.00 68 1005.5
20260505181550 84 155 1.0 5.0 0.00 0.00 0.00 68 1005.6
20260505180043 83 188 1.0 7.0 0.00 0.00 0.00 70 1005.6
20260505174544 82 221 1.0 6.0 0.00 0.00 0.00 71 1005.9
20260505173037 81 159 2.0 14.0 0.00 0.00 0.00 71 1006.0
20260505171536 80 199 0.0 10.0 0.00 0.00 0.00 73 1006.0
20260505170032 80 195 0.0 6.0 0.00 0.00 0.00 73 1006.0
20260505164532 80 163 0.0 8.0 0.00 0.00 0.00 74 1006.1
20260505163031 80 209 0.0 4.0 0.00 0.00 0.00 74 1006.1
20260505161529 79 184 0.0 5.0 0.00 0.00 0.00 76 1006.0
20260505153018 76 168 0.0 7.0 0.00 0.00 0.00 79 1006.3
20260505151516 75 210 0.0 10.0 0.00 0.00 0.00 80 1006.4
20260505130111 69 164 0.0 1.0 0.00 0.00 0.00 86 1005.6
20260505124601 0 0.0 0.0 0.00 0.00 0.00 1005.5
20260505123051 0 0.0 0.0 0.00 0.00 0.00 1005.4
20260505121550 0 0.0 0.0 0.00 0.00 0.00 1005.1
20260505120046 68 217 0.0 0.0 0.00 0.00 0.00 85 1004.9
20260505114542 68 172 0.0 0.0 0.00 0.00 0.00 84 1004.9
20260505113049 68 223 0.0 0.0 0.00 0.00 0.00 85 1004.6
20260505111541 68 198 0.0 0.0 0.00 0.00 0.00 84 1004.6
20260505101535 68 168 0.0 0.0 0.00 0.00 0.00 85 1004.9
20260505100035 68 200 0.0 1.0 0.00 0.00 0.00 85 1004.8
20260505094536 69 155 0.0 0.0 0.00 0.00 0.00 84 1005.0
20260505093032 69 178 0.0 1.0 0.00 0.00 0.00 84 1005.2
20260505091531 69 165 0.0 1.0 0.00 0.00 0.00 84 1005.3
20260505090036 69 173 0.0 1.0 0.00 0.00 0.00 83 1005.2
20260505084528 69 201 0.0 1.0 0.00 0.00 0.00 83 1005.2
20260505083027 69 158 0.0 8.0 0.00 0.00 0.00 83 1005.1
20260505081539 69 161 0.0 5.0 0.00 0.00 0.00 83 1005.6
20260505080025 70 200 0.0 1.0 0.00 0.00 0.00 83 1005.6
20260505074524 70 159 0.0 3.0 0.00 0.00 0.00 82 1005.5
20260505073024 70 146 0.0 1.0 0.00 0.00 0.00 82 1005.8
20260505071539 70 207 0.0 3.0 0.00 0.00 0.00 82 1006.1
20260505070020 70 163 0.0 3.0 0.00 0.00 0.00 81 1006.2